User: anonymous   Login
Location: Newark
(55.7167°N, 12.5667°E)
Time: 20:08:30
(UTC+00:00)
Language:

LightSail 2 - Orbit

View from above orbital plane
View from above orbital plane
View from above satellite
View from above satellite

Ground track
Ground track

The orbit data is extracted from the following two-line orbital elements,

1 44420U 19036AC  20020.28276380 +.00003401 +00000-0 +73931-3 0  9997
2 44420 024.0090 329.3250 0011622 274.3396 085.5797 14.54169611028572
Epoch (UTC): 20 January 2020 06:47:10
Eccentricity: 0.0011622
inclination: 24.0090°
perigee height: 704 km
apogee height: 720 km
right ascension of ascending node: 329.3250°
argument of perigee: 274.3396°
revolutions per day: 14.54169611
mean anomaly at epoch: 85.5797°
orbit number at epoch: 2857

The dashed part of the orbit path shows where the satellite is in the earth's shadow,  

DLR